Weather History for Lyndonville, VT

Change the Weather History Date:

Friday, October 12, 2012

  Actual Average (K1V4) Record (K1V4)
Temperature  
Mean Temperature 38 °F 48 °F  
Max Temperature 45 °F 59 °F 89 °F (1930)
Min Temperature 31 °F 38 °F 17 °F (1964)
Degree Days  
Heating Degree Days 28 17  
Month to date heating degree days 171  
Since 1 July heating degree days 405  
Cooling Degree Days 0 0  
Month to date cooling degree days 0  
Year to date cooling degree days 432  
Moisture  
Dew Point 28 °F    
Average Humidity 64    
Maximum Humidity 83    
Minimum Humidity 49    
Precipitation  
Precipitation 0.00 in 0.13 in 1.02 in (1905)
Month to date precipitation 1.53  
Year to date precipitation 30.68  
Sea Level Pressure  
Sea Level Pressure 30.10 in    
Wind  
Wind Speed 8 mph (WNW)    
Max Wind Speed 18 mph    
Max Gust Speed 26 mph    
Visibility 10 miles    
Events Rain    
T = Trace of Precipitation, MM = Missing Value Source: NWS Daily Summary

Daily Weather History Graph

Daily Weather History Graph

Search for Another Location

Airport:

Trip Planner

Search our weather history database for the weather conditions in past years. The results will help you decide how hot, cold, wet, or windy it might be!

Date:

Astronomy

Oct. 12, 2012 Rise Set
Actual Time 7:00 AM EDT 6:08 PM EDT
Civil Twilight 6:30 AM EDT 6:37 PM EDT
Nautical Twilight 5:57 AM EDT 7:10 PM EDT
Astronomical Twilight 5:23 AM EDT 7:44 PM EDT
Moon 3:33 AM EDT (10/12) 4:21 PM EDT (10/12)
Length of Visible Light 12h 06m
Length of Day
11h 07m
Waning Crescent, 11% of the Moon is Illuminated
Oct 12
Waning Crescent
Oct 15
New
Oct 21
First Quarter
Oct 29
Full
Nov 6
Last Quarter

Hourly Weather History & Observations

Time (EDT) Temp. Windchill Dew Point Humidity Pressure Visibility Wind Dir Wind Speed Gust Speed Precip Events Conditions
12:35 AM 42.6 °F 39.9 °F 32.9 °F 68% 29.97 in 10.0 mi SSE 4.6 mph - N/A   Unknown
12:55 AM 43.0 °F 38.2 °F 32.2 °F 66% 29.97 in 10.0 mi South 8.1 mph - N/A   Overcast
1:35 AM 43.2 °F 39.7 °F 31.8 °F 64% 29.96 in 10.0 mi South 5.8 mph - N/A   Overcast
1:55 AM 43.7 °F 39.1 °F 31.1 °F 61% 29.95 in 10.0 mi South 8.1 mph - N/A   Overcast
2:15 AM 44.1 °F 39.0 °F 30.9 °F 60% 29.93 in 10.0 mi South 9.2 mph - N/A   Overcast
2:35 AM 44.1 °F 39.5 °F 30.9 °F 60% 29.92 in 10.0 mi South 8.1 mph - N/A   Overcast
2:55 AM 44.1 °F 39.5 °F 31.3 °F 61% 29.91 in 10.0 mi South 8.1 mph - N/A   Overcast
3:15 AM 43.9 °F 40.5 °F 31.5 °F 62% 29.91 in 10.0 mi South 5.8 mph - N/A   Overcast
3:35 AM 43.9 °F 39.9 °F 31.8 °F 63% 29.89 in 10.0 mi South 6.9 mph - N/A   Overcast
3:55 AM 43.9 °F 39.9 °F 31.8 °F 63% 29.90 in 10.0 mi SW 6.9 mph - N/A   Overcast
4:15 AM 43.3 °F 39.9 °F 32.4 °F 65% 29.91 in 10.0 mi SW 5.8 mph - N/A Rain Light Rain
4:55 AM 42.6 °F 38.4 °F 36.7 °F 79% 29.94 in 7.0 mi WNW 6.9 mph 16.1 mph N/A Rain Light Rain
5:15 AM 42.1 °F 34.9 °F 37.4 °F 83% 29.94 in 7.0 mi West 13.8 mph 23.0 mph N/A Rain Light Rain
5:35 AM 41.2 °F 36.6 °F 36.5 °F 83% 29.95 in 7.0 mi WSW 6.9 mph 20.7 mph N/A Rain Rain
6:15 AM 40.5 °F 33.6 °F 35.1 °F 81% 29.97 in 10.0 mi West 11.5 mph 19.6 mph N/A Rain Rain
6:35 AM 39.7 °F 37.6 °F 34.0 °F 80% 29.98 in 10.0 mi West 3.5 mph - N/A Rain Light Rain
6:55 AM 40.3 °F 38.2 °F 33.1 °F 75% 29.98 in 10.0 mi South 3.5 mph - N/A   Overcast
7:15 AM 40.1 °F - 33.4 °F 77% 29.98 in 10.0 mi Calm Calm - N/A   Overcast
8:15 AM 39.0 °F 35.7 °F 32.4 °F 77% 30.02 in 10.0 mi West 4.6 mph - N/A   Overcast
8:35 AM 39.2 °F 32.0 °F 31.5 °F 74% 30.02 in 10.0 mi WNW 11.5 mph 18.4 mph N/A   Overcast
8:55 AM 38.7 °F 33.6 °F 30.9 °F 74% 30.04 in 10.0 mi NW 6.9 mph 18.4 mph N/A   Overcast
9:15 AM 38.7 °F 32.4 °F 30.7 °F 73% 30.06 in 10.0 mi WNW 9.2 mph - N/A   Overcast
9:35 AM 38.5 °F 32.1 °F 30.2 °F 72% 30.07 in 10.0 mi WNW 9.2 mph 18.4 mph N/A   Overcast
10:15 AM 38.7 °F 30.5 °F 29.1 °F 69% 30.07 in 10.0 mi NW 13.8 mph 18.4 mph N/A   Overcast
10:35 AM 40.5 °F 33.6 °F 30.4 °F 67% 30.07 in 10.0 mi West 11.5 mph 18.4 mph N/A   Mostly Cloudy
10:55 AM 41.4 °F 36.2 °F 29.3 °F 62% 30.08 in 10.0 mi NW 8.1 mph 18.4 mph N/A   Mostly Cloudy
11:15 AM 40.8 °F 33.3 °F 26.4 °F 57% 30.08 in 10.0 mi WNW 13.8 mph 23.0 mph N/A   Mostly Cloudy
11:35 AM 43.0 °F 35.7 °F 26.8 °F 53% 30.08 in 10.0 mi WNW 15.0 mph 20.7 mph N/A   Mostly Cloudy
11:55 AM 42.4 °F 34.4 °F 27.1 °F 55% 30.08 in 10.0 mi WNW 17.3 mph 24.2 mph N/A   Mostly Cloudy
12:15 PM 42.6 °F 36.8 °F 27.5 °F 55% 30.09 in 10.0 mi WNW 10.4 mph 21.9 mph N/A   Mostly Cloudy
12:35 PM 44.1 °F 37.1 °F 27.1 °F 51% 30.08 in 10.0 mi WNW 15.0 mph 26.5 mph N/A   Mostly Cloudy
1:15 PM 43.2 °F 35.6 °F 26.8 °F 52% 30.09 in 10.0 mi WNW 16.1 mph 24.2 mph N/A   Scattered Clouds
1:35 PM 43.9 °F 35.9 °F 27.1 °F 52% 30.10 in 10.0 mi NW 18.4 mph 25.3 mph N/A   Scattered Clouds
1:55 PM 42.1 °F 34.5 °F 25.9 °F 53% 30.11 in 10.0 mi NW 15.0 mph 21.9 mph N/A   Mostly Cloudy
2:35 PM 41.4 °F 34.7 °F 28.9 °F 61% 30.12 in 10.0 mi NW 11.5 mph 21.9 mph N/A   Overcast
3:55 PM 39.2 °F 33.0 °F 23.9 °F 54% 30.16 in 10.0 mi WNW 9.2 mph 20.7 mph N/A   Mostly Cloudy
4:35 PM 37.4 °F 30.3 °F 23.7 °F 58% 30.18 in 10.0 mi WNW 10.4 mph 16.1 mph N/A   Overcast
4:55 PM 37.9 °F 30.5 °F 21.2 °F 51% 30.20 in 10.0 mi West 11.5 mph 20.7 mph N/A   Overcast
5:15 PM 37.9 °F 29.6 °F 21.6 °F 52% 30.20 in 10.0 mi NW 13.8 mph 21.9 mph N/A   Overcast
5:35 PM 37.0 °F 29.8 °F 20.5 °F 51% 30.21 in 10.0 mi WNW 10.4 mph 17.3 mph N/A   Overcast
5:55 PM 36.9 °F 29.6 °F 20.3 °F 51% 30.21 in 10.0 mi WNW 10.4 mph 20.7 mph N/A   Mostly Cloudy
6:15 PM 36.9 °F 28.7 °F 19.4 °F 49% 30.23 in 10.0 mi NW 12.7 mph 23.0 mph N/A   Mostly Cloudy
6:35 PM 36.0 °F 29.6 °F 20.1 °F 53% 30.24 in 10.0 mi NW 8.1 mph 20.7 mph N/A   Scattered Clouds
7:15 PM 33.4 °F 27.3 °F 22.3 °F 64% 30.26 in 10.0 mi NNW 6.9 mph - N/A   Clear
7:35 PM 32.5 °F 27.1 °F 22.8 °F 67% 30.27 in 10.0 mi NNW 5.8 mph - N/A   Clear
7:55 PM 32.2 °F 27.7 °F 23.0 °F 69% 30.27 in 10.0 mi NW 4.6 mph - N/A   Scattered Clouds
8:15 PM 33.3 °F 28.9 °F 23.5 °F 68% 30.28 in 10.0 mi NW 4.6 mph - N/A   Mostly Cloudy
8:55 PM 32.4 °F 29.1 °F 23.0 °F 68% 30.29 in 10.0 mi NNW 3.5 mph - N/A   Scattered Clouds
9:15 PM 32.0 °F - 22.8 °F 69% 30.30 in 10.0 mi Calm Calm - N/A   Scattered Clouds
9:35 PM 32.0 °F - 22.8 °F 69% 30.30 in 10.0 mi Calm Calm - N/A   Mostly Cloudy
9:55 PM 31.8 °F - 22.6 °F 69% 30.31 in 10.0 mi Calm Calm - N/A   Mostly Cloudy
10:15 PM 32.5 °F - 22.5 °F 66% 30.31 in 10.0 mi Calm Calm - N/A   Scattered Clouds
10:35 PM 31.5 °F 28.1 °F 23.0 °F 71% 30.32 in 10.0 mi West 3.5 mph - N/A   Scattered Clouds
10:55 PM 32.0 °F 25.6 °F 22.3 °F 67% 30.32 in 10.0 mi WNW 6.9 mph - N/A   Clear
11:15 PM 31.6 °F 26.0 °F 22.1 °F 68% 30.33 in 10.0 mi NW 5.8 mph - N/A   Clear
11:55 PM 31.1 °F 26.4 °F 21.7 °F 68% 30.33 in 10.0 mi NW 4.6 mph - N/A   Clear